DW6610 Weather Reports


time (UTC)temp
C
wind
direction
speed
KPH
gust
KPH
rain 1hr
cm
rain 24hr
cm
rain mn
cm
humidity
%
barometer
mb
20260904035551 27 0 0.0 0.0 0.00 0.00 0.00 81 1015.5
20260904035051 27 0 0.0 0.0 0.00 0.00 0.00 81 1015.5
20260904034605 27 0 0.0 0.0 0.00 0.00 0.00 80 1015.4
20260904034051 28 0 0.0 1.6 0.00 0.00 0.00 80 1015.5
20260904033552 28 0 0.0 4.8 0.00 0.00 0.00 79 1015.5
20260904033103 28 0 0.0 4.8 0.00 0.00 0.00 79 1015.5
20260904032550 28 56 0.0 4.8 0.00 0.00 0.00 79 1015.5
20260904032050 28 0 0.0 3.2 0.00 0.00 0.00 79 1015.5
20260904031603 28 0 0.0 4.8 0.00 0.00 0.00 79 1015.6
20260904031051 28 0 0.0 4.8 0.00 0.00 0.00 79 1015.5
20260904030551 28 0 1.6 8.0 0.00 0.00 0.00 79 1015.6
20260904025551 28 57 0.0 1.6 0.00 0.00 0.00 81 1015.7
20260904025052 28 0 0.0 0.0 0.00 0.00 0.00 81 1015.5
20260904024608 28 0 0.0 0.0 0.00 0.00 0.00 80 1015.5
20260904024054 28 0 0.0 0.0 0.00 0.00 0.00 80 1015.5
20260904023551 28 0 0.0 1.6 0.00 0.00 0.00 80 1015.4
20260904023103 28 0 0.0 1.6 0.00 0.00 0.00 79 1015.4
20260904022551 28 0 0.0 1.6 0.00 0.00 0.00 79 1015.3
20260904022052 28 0 0.0 0.0 0.00 0.00 0.00 81 1015.2
20260904021602 28 0 0.0 0.0 0.00 0.00 0.00 81 1015.2
20260904021051 28 0 0.0 0.0 0.00 0.00 0.00 81 1015.2
20260904020552 28 0 0.0 1.6 0.00 0.00 0.00 82 1015.1
20260904020104 29 0 0.0 1.6 0.00 0.00 0.00 81 1015.1
20260904015551 29 0 0.0 1.6 0.00 0.00 0.00 81 1015.0
20260904015051 29 91 0.0 1.6 0.00 0.00 0.00 81 1014.9
20260904014645 29 0 0.0 1.6 0.00 0.00 0.00 79 1014.9
20260904014052 30 0 0.0 1.6 0.00 0.00 0.00 79 1014.9
20260904013551 30 0 0.0 1.6 0.00 0.00 0.00 78 1014.9
20260904013103 30 0 0.0 1.6 0.00 0.00 0.00 77 1014.7
20260904012551 30 0 0.0 0.0 0.00 0.00 0.00 75 1014.7
20260904012051 30 0 0.0 0.0 0.00 0.00 0.00 76 1014.7
20260904011603 30 0 0.0 0.0 0.00 0.00 0.00 74 1014.7
20260904011054 30 0 0.0 0.0 0.00 0.00 0.00 74 1014.6
20260904010551 30 0 0.0 0.0 0.00 0.00 0.00 73 1014.5
20260904005551 31 0 0.0 0.0 0.00 0.00 0.00 71 1014.5
20260904005052 31 0 0.0 1.6 0.00 0.00 0.00 70 1014.4
20260904004604 31 0 0.0 1.6 0.00 0.00 0.00 70 1014.5
20260904004052 31 0 0.0 1.6 0.00 0.00 0.00 69 1014.5
20260904003551 31 0 0.0 3.2 0.00 0.00 0.00 67 1014.4
20260904003102 32 0 0.0 3.2 0.00 0.00 0.00 67 1014.4
20260904002552 32 86 1.6 3.2 0.00 0.00 0.00 64 1014.5
20260904002052 33 84 0.0 1.6 0.00 0.00 0.00 61 1014.4
20260904001601 33 0 0.0 1.6 0.00 0.00 0.00 61 1014.4
20260904001051 33 0 0.0 3.2 0.00 0.00 0.00 60 1014.3
20260904000551 33 0 0.0 3.2 0.00 0.00 0.00 59 1014.3
20260904000138 34 75 0.0 3.2 0.00 0.00 0.00 58 1014.3
20260903235551 34 83 1.6 4.8 0.00 0.00 0.00 58 1014.2
20260903235051 35 49 1.6 4.8 0.00 0.00 0.00 58 1014.2
20260903234603 35 84 0.0 1.6 0.00 0.00 0.00 53 1014.2
20260903234054 36 0 0.0 1.6 0.00 0.00 0.00 52 1014.2
20260903233551 36 0 0.0 1.6 0.00 0.00 0.00 51 1014.2
20260903233102 36 300 0.0 4.8 0.00 0.00 0.00 51 1014.2
20260903232551 36 0 0.0 4.8 0.00 0.00 0.00 49 1014.2
20260903232055 36 299 1.6 4.8 0.00 0.00 0.00 48 1014.1
20260903231618 36 68 0.0 4.8 0.00 0.00 0.00 48 1014.1
20260903231051 36 72 1.6 4.8 0.00 0.00 0.00 48 1014.1
20260903230551 36 94 1.6 4.8 0.00 0.00 0.00 48 1014.0
20260903230111 36 83 1.6 4.8 0.00 0.00 0.00 49 1013.8
20260903225554 36 78 1.6 4.8 0.00 0.00 0.00 48 1013.9
20260903225052 37 80 0.0 4.8 0.00 0.00 0.00 48 1013.9
20260903224603 37 253 1.6 4.8 0.00 0.00 0.00 47 1013.9
20260903224055 37 106 1.6 6.4 0.00 0.00 0.00 46 1013.8
20260903223552 38 82 1.6 8.0 0.00 0.00 0.00 45 1013.8
20260903223103 38 243 1.6 8.0 0.00 0.00 0.00 45 1013.8
20260903222555 38 44 1.6 6.4 0.00 0.00 0.00 44 1013.8
20260903222051 38 86 1.6 9.7 0.00 0.00 0.00 46 1013.7
20260903221606 38 91 1.6 9.7 0.00 0.00 0.00 45 1013.8
20260903221051 38 63 3.2 9.7 0.00 0.00 0.00 45 1013.8
20260903220552 38 78 1.6 6.4 0.00 0.00 0.00 46 1013.7
20260903220116 38 65 1.6 8.0 0.00 0.00 0.00 46 1013.8
20260903215551 38 79 1.6 9.7 0.00 0.00 0.00 45 1013.7
20260903215052 38 9 3.2 9.7 0.00 0.00 0.00 46 1013.8
20260903214606 39 338 1.6 11.3 0.00 0.00 0.00 46 1013.7
20260903214051 38 113 3.2 11.3 0.00 0.00 0.00 48 1013.8
20260903213552 38 68 1.6 8.0 0.00 0.00 0.00 45 1013.8
20260903213105 39 82 1.6 8.0 0.00 0.00 0.00 47 1013.8
20260903212551 38 80 1.6 8.0 0.00 0.00 0.00 46 1014.0
20260903212051 38 86 1.6 8.0 0.00 0.00 0.00 46 1014.0
20260903211603 38 86 3.2 8.0 0.00 0.00 0.00 45 1014.0
20260903211052 39 84 3.2 8.0 0.00 0.00 0.00 47 1014.0
20260903210552 39 356 1.6 4.8 0.00 0.00 0.00 47 1014.1
20260903205554 38 164 0.0 8.0 0.00 0.00 0.00 46 1014.3
20260903205051 38 30 1.6 8.0 0.00 0.00 0.00 46 1014.5
20260903204608 38 67 1.6 11.3 0.00 0.00 0.00 45 1014.5
20260903204051 38 68 3.2 11.3 0.00 0.00 0.00 46 1014.5
20260903203555 38 72 3.2 9.7 0.00 0.00 0.00 46 1014.6
20260903203102 38 83 3.2 9.7 0.00 0.00 0.00 47 1014.6
20260903202555 38 115 3.2 6.4 0.00 0.00 0.00 47 1014.7
20260903202051 38 105 3.2 6.4 0.00 0.00 0.00 47 1014.6
20260903201607 38 90 1.6 6.4 0.00 0.00 0.00 49 1014.8
20260903201052 38 70 1.6 6.4 0.00 0.00 0.00 46 1014.9
20260903200552 38 91 3.2 6.4 0.00 0.00 0.00 48 1015.0
20260903200108 38 84 3.2 9.7 0.00 0.00 0.00 48 1015.0
20260903195555 39 102 1.6 9.7 0.00 0.00 0.00 47 1015.0
20260903195051 38 59 3.2 9.7 0.00 0.00 0.00 49 1015.1
20260903194601 38 57 0.0 6.4 0.00 0.00 0.00 52 1015.2
20260903194052 38 83 3.2 6.4 0.00 0.00 0.00 50 1015.3
20260903193551 38 56 1.6 8.0 0.00 0.00 0.00 51 1015.3
20260903193101 37 27 1.6 9.7 0.00 0.00 0.00 48 1015.4
20260903192552 38 86 3.2 9.7 0.00 0.00 0.00 48 1015.5
20260903192052 38 86 1.6 6.4 0.00 0.00 0.00 49 1015.6
20260903191607 38 70 1.6 6.4 0.00 0.00 0.00 50 1015.6
20260903191051 38 62 1.6 6.4 0.00 0.00 0.00 49 1015.7
20260903190551 38 52 0.0 4.8 0.00 0.00 0.00 51 1015.8
20260903190106 37 99 1.6 8.0 0.00 0.00 0.00 51 1015.8
20260903185551 37 103 3.2 8.0 0.00 0.00 0.00 56 1015.9
20260903185051 37 87 3.2 6.4 0.00 0.00 0.00 55 1015.9
20260903184601 37 106 1.6 4.8 0.00 0.00 0.00 53 1015.9
20260903184052 37 259 0.0 8.0 0.00 0.00 0.00 51 1015.9
20260903183551 37 88 3.2 8.0 0.00 0.00 0.00 54 1016.1
20260903183104 36 84 1.6 6.4 0.00 0.00 0.00 57 1016.1
20260903182554 36 95 3.2 9.7 0.00 0.00 0.00 54 1016.2
20260903182051 36 109 3.2 9.7 0.00 0.00 0.00 55 1016.3
20260903181559 36 86 3.2 6.4 0.00 0.00 0.00 52 1016.4
20260903181055 37 110 0.0 6.4 0.00 0.00 0.00 51 1016.3
20260903180552 37 98 1.6 6.4 0.00 0.00 0.00 54 1016.5
20260903175552 37 248 0.0 6.4 0.00 0.00 0.00 54 1016.5
20260903175051 37 94 1.6 6.4 0.00 0.00 0.00 55 1016.6
20260903174600 36 96 1.6 4.8 0.00 0.00 0.00 56 1016.7
20260903174051 36 267 1.6 4.8 0.00 0.00 0.00 53 1016.6
20260903173552 36 0 0.0 11.3 0.00 0.00 0.00 56 1016.7
20260903173107 36 77 1.6 11.3 0.00 0.00 0.00 53 1016.7
20260903172552 36 323 3.2 9.7 0.00 0.00 0.00 52 1016.8
20260903172052 36 69 3.2 9.7 0.00 0.00 0.00 53 1016.9
20260903171600 36 77 4.8 9.7 0.00 0.00 0.00 58 1017.0
20260903171051 37 75 3.2 9.7 0.00 0.00 0.00 56 1017.1
20260903170552 37 46 3.2 8.0 0.00 0.00 0.00 58 1017.1
20260903170110 37 85 1.6 6.4 0.00 0.00 0.00 55 1017.2
20260903165552 36 96 1.6 4.8 0.00 0.00 0.00 56 1017.3
20260903165051 37 115 1.6 6.4 0.00 0.00 0.00 55 1017.2
20260903164603 37 75 1.6 8.0 0.00 0.00 0.00 56 1017.4
20260903164051 36 233 3.2 8.0 0.00 0.00 0.00 57 1017.4
20260903163551 36 0 3.2 8.0 0.00 0.00 0.00 57 1017.3
20260903163113 36 107 3.2 6.4 0.00 0.00 0.00 59 1017.5
20260903162552 37 158 1.6 6.4 0.00 0.00 0.00 54 1017.4
20260903162052 36 0 0.0 6.4 0.00 0.00 0.00 59 1017.5
20260903161612 36 84 0.0 4.8 0.00 0.00 0.00 59 1017.6
20260903161052 35 104 1.6 3.2 0.00 0.00 0.00 60 1017.5
20260903160553 36 231 1.6 4.8 0.00 0.00 0.00 56 1017.6
20260903160107 36 53 0.0 6.4 0.00 0.00 0.00 58 1017.6
20260903155552 36 50 1.6 6.4 0.00 0.00 0.00 57 1017.6
20260903155051 36 77 3.2 6.4 0.00 0.00 0.00 57 1017.5
20260903154600 36 81 0.0 4.8 0.00 0.00 0.00 61 1017.6
20260903154051 36 92 0.0 4.8 0.00 0.00 0.00 61 1017.6
20260903153551 35 61 1.6 4.8 0.00 0.00 0.00 63 1017.7
20260903153101 35 0 0.0 4.8 0.00 0.00 0.00 60 1017.7
20260903152552 35 107 1.6 4.8 0.00 0.00 0.00 57 1017.7
20260903152051 35 90 1.6 4.8 0.00 0.00 0.00 60 1017.6
20260903151605 35 88 0.0 4.8 0.00 0.00 0.00 64 1017.6
20260903151052 35 114 0.0 4.8 0.00 0.00 0.00 66 1017.6
20260903150552 35 148 0.0 4.8 0.00 0.00 0.00 65 1017.5
20260903150119 35 0 1.6 4.8 0.00 0.00 0.00 63 1017.6
20260903145551 34 131 0.0 3.2 0.00 0.00 0.00 68 1017.7
20260903145051 34 55 0.0 3.2 0.00 0.00 0.00 66 1017.7
20260903144603 33 115 0.0 4.8 0.00 0.00 0.00 69 1017.7
20260903144051 33 70 1.6 4.8 0.00 0.00 0.00 68 1017.6
20260903143551 33 50 1.6 4.8 0.00 0.00 0.00 68 1017.7
20260903143104 33 92 1.6 4.8 0.00 0.00 0.00 70 1017.7
20260903142552 33 145 0.0 3.2 0.00 0.00 0.00 67 1017.7
20260903142056 33 59 1.6 4.8 0.00 0.00 0.00 68 1017.7
20260903141606 33 72 1.6 4.8 0.00 0.00 0.00 65 1017.6
20260903141054 33 0 0.0 1.6 0.00 0.00 0.00 67 1017.6
20260903140552 33 82 0.0 1.6 0.00 0.00 0.00 68 1017.5
20260903140101 32 0 0.0 1.6 0.00 0.00 0.00 71 1017.5
20260903135551 32 82 0.0 1.6 0.00 0.00 0.00 69 1017.6
20260903135051 32 0 0.0 1.6 0.00 0.00 0.00 69 1017.7
20260903134602 32 0 0.0 1.6 0.00 0.00 0.00 72 1017.7
20260903134053 31 0 0.0 1.6 0.00 0.00 0.00 72 1017.6
20260903133552 31 0 0.0 1.6 0.00 0.00 0.00 75 1017.6
20260903133107 30 0 0.0 1.6 0.00 0.00 0.00 76 1017.7
20260903132552 30 0 0.0 1.6 0.00 0.00 0.00 79 1017.7
20260903132051 28 0 0.0 1.6 0.00 0.00 0.00 81 1017.7
20260903131605 27 0 0.0 0.0 0.00 0.00 0.00 85 1017.9
20260903131052 26 0 0.0 1.6 0.00 0.00 0.00 88 1017.9
20260903130554 26 0 0.0 1.6 0.00 0.00 0.00 89 1018.0
20260903130111 25 0 0.0 1.6 0.00 0.00 0.00 89 1018.0
20260903125553 25 82 0.0 1.6 0.00 0.00 0.00 92 1017.9
20260903125051 24 0 0.0 1.6 0.00 0.00 0.00 93 1017.8
20260903124607 23 0 0.0 1.6 0.00 0.00 0.00 93 1017.8
20260903124051 23 81 0.0 1.6 0.00 0.00 0.00 94 1017.9
20260903123551 23 81 0.0 1.6 0.00 0.00 0.00 95 1017.9
20260903123105 23 0 0.0 1.6 0.00 0.00 0.00 95 1017.9
20260903122553 23 0 0.0 0.0 0.00 0.00 0.00 96 1017.7
20260903122051 23 0 0.0 0.0 0.00 0.00 0.00 96 1017.6
20260903121601 23 0 0.0 0.0 0.00 0.00 0.00 96 1017.4
20260903121052 23 0 0.0 0.0 0.00 0.00 0.00 96 1017.3
20260903120554 22 0 0.0 0.0 0.00 0.00 0.00 96 1017.4
20260903115551 22 0 0.0 0.0 0.00 0.00 0.00 96 1017.4
20260903115052 22 0 0.0 0.0 0.00 0.00 0.00 96 1017.3
20260903114619 22 0 0.0 0.0 0.00 0.00 0.00 96 1017.3
20260903114055 22 0 0.0 0.0 0.00 0.00 0.00 96 1017.2
20260903113551 22 0 0.0 1.6 0.00 0.00 0.00 96 1017.1
20260903113106 22 0 0.0 1.6 0.00 0.00 0.00 95 1017.1
20260903112553 22 0 0.0 1.6 0.00 0.00 0.00 96 1017.1
20260903112052 22 0 0.0 1.6 0.00 0.00 0.00 95 1017.2
20260903111617 22 0 0.0 1.6 0.00 0.00 0.00 95 1017.0
20260903111051 22 0 0.0 1.6 0.00 0.00 0.00 95 1017.0
20260903110550 23 0 0.0 0.0 0.00 0.00 0.00 95 1016.9
20260903110110 23 0 0.0 0.0 0.00 0.00 0.00 95 1016.8
20260903105554 23 0 0.0 0.0 0.00 0.00 0.00 95 1016.9
20260903105055 23 0 0.0 0.0 0.00 0.00 0.00 94 1016.9
20260903104615 23 0 0.0 0.0 0.00 0.00 0.00 94 1016.8
20260903104051 23 0 0.0 0.0 0.00 0.00 0.00 94 1016.7
20260903103551 23 0 0.0 0.0 0.00 0.00 0.00 93 1016.8
20260903103117 23 0 0.0 0.0 0.00 0.00 0.00 93 1016.7
20260903102552 23 0 0.0 0.0 0.00 0.00 0.00 93 1016.8
20260903102053 23 0 0.0 0.0 0.00 0.00 0.00 93 1016.8
20260903101607 23 0 0.0 0.0 0.00 0.00 0.00 93 1016.8
20260903101052 23 0 0.0 0.0 0.00 0.00 0.00 92 1016.7
20260903100555 23 0 0.0 0.0 0.00 0.00 0.00 92 1016.8
20260903100105 23 0 0.0 0.0 0.00 0.00 0.00 92 1016.7
20260903095551 23 0 0.0 0.0 0.00 0.00 0.00 93 1016.7
20260903095051 23 0 0.0 0.0 0.00 0.00 0.00 92 1016.7
20260903094604 23 0 0.0 0.0 0.00 0.00 0.00 92 1016.6
20260903094052 23 0 0.0 0.0 0.00 0.00 0.00 92 1016.6
20260903093552 23 0 0.0 0.0 0.00 0.00 0.00 92 1016.7
20260903093128 23 0 0.0 0.0 0.00 0.00 0.00 91 1016.6
20260903092551 23 0 0.0 0.0 0.00 0.00 0.00 91 1016.6
20260903092052 23 0 0.0 0.0 0.00 0.00 0.00 91 1016.6
20260903091608 23 0 0.0 0.0 0.00 0.00 0.00 91 1016.7
20260903091052 23 0 0.0 0.0 0.00 0.00 0.00 91 1016.5
20260903090553 23 0 0.0 0.0 0.00 0.00 0.00 91 1016.6
20260903085552 23 0 0.0 0.0 0.00 0.00 0.00 91 1016.6
20260903085051 23 0 0.0 1.6 0.00 0.00 0.00 91 1016.5
20260903084600 23 0 0.0 1.6 0.00 0.00 0.00 91 1016.6
20260903084051 23 0 0.0 1.6 0.00 0.00 0.00 91 1016.6
20260903083553 23 0 0.0 0.0 0.00 0.00 0.00 91 1016.5
20260903083100 23 0 0.0 0.0 0.00 0.00 0.00 91 1016.5
20260903082552 23 0 0.0 0.0 0.00 0.00 0.00 91 1016.5
20260903082052 24 0 0.0 0.0 0.00 0.00 0.00 91 1016.4
20260903081603 24 0 0.0 0.0 0.00 0.00 0.00 91 1016.4
20260903081052 24 0 0.0 0.0 0.00 0.00 0.00 90 1016.4
20260903080553 23 0 0.0 0.0 0.00 0.00 0.00 90 1016.4
20260903080059 24 0 0.0 0.0 0.00 0.00 0.00 89 1016.4
20260903075552 24 0 0.0 0.0 0.00 0.00 0.00 89 1016.3
20260903075055 24 0 0.0 0.0 0.00 0.00 0.00 89 1016.4
20260903074600 24 0 0.0 0.0 0.00 0.00 0.00 90 1016.3
20260903074051 24 0 0.0 0.0 0.00 0.00 0.00 90 1016.4
20260903073554 24 0 0.0 0.0 0.00 0.00 0.00 89 1016.3
20260903073101 24 0 0.0 0.0 0.00 0.00 0.00 89 1016.3
20260903072551 24 0 0.0 0.0 0.00 0.00 0.00 88 1016.3
20260903072052 25 0 0.0 0.0 0.00 0.00 0.00 88 1016.3
20260903071629 25 0 0.0 1.6 0.00 0.00 0.00 88 1016.4
20260903071052 25 0 0.0 1.6 0.00 0.00 0.00 87 1016.4
20260903070552 25 0 0.0 1.6 0.00 0.00 0.00 87 1016.4
20260903070111 25 0 0.0 1.6 0.00 0.00 0.00 87 1016.4
20260903065552 25 0 0.0 1.6 0.00 0.00 0.00 86 1016.5
20260903065051 25 0 0.0 1.6 0.00 0.00 0.00 85 1016.5
20260903064606 25 0 0.0 1.6 0.00 0.00 0.00 84 1016.5
20260903064052 26 77 0.0 1.6 0.00 0.00 0.00 84 1016.5
20260903063552 26 0 0.0 1.6 0.00 0.00 0.00 83 1016.4
20260903063107 26 0 0.0 1.6 0.00 0.00 0.00 82 1016.5
20260903062554 26 0 0.0 4.8 0.00 0.00 0.00 82 1016.6
20260903062053 26 0 0.0 4.8 0.00 0.00 0.00 82 1016.6
20260903061611 26 60 1.6 4.8 0.00 0.00 0.00 83 1016.5
20260903061051 25 66 0.0 3.2 0.00 0.00 0.00 84 1016.4
20260903060551 25 0 0.0 3.2 0.00 0.00 0.00 87 1016.6
20260903060107 25 112 0.0 1.6 0.00 0.00 0.00 88 1016.6
20260903055553 25 112 0.0 1.6 0.00 0.00 0.00 89 1016.6
20260903055051 25 0 0.0 1.6 0.00 0.00 0.00 89 1016.6
20260903054600 25 0 0.0 1.6 0.00 0.00 0.00 88 1016.6
20260903054052 25 0 0.0 0.0 0.00 0.00 0.00 88 1016.5
20260903053551 25 0 0.0 0.0 0.00 0.00 0.00 89 1016.5
20260903053103 25 0 0.0 0.0 0.00 0.00 0.00 88 1016.6
20260903052552 25 0 0.0 1.6 0.00 0.00 0.00 88 1016.6
20260903052052 25 0 0.0 1.6 0.00 0.00 0.00 89 1016.5
20260903051610 25 0 0.0 1.6 0.00 0.00 0.00 89 1016.5
20260903051051 25 0 0.0 1.6 0.00 0.00 0.00 90 1016.5
20260903050551 25 0 0.0 1.6 0.00 0.00 0.00 90 1016.5
20260903050115 25 0 0.0 1.6 0.00 0.00 0.00 90 1016.5
20260903045551 26 0 0.0 1.6 0.00 0.00 0.00 90 1016.5
20260903045051 26 0 0.0 1.6 0.00 0.00 0.00 90 1016.5
20260903044606 26 0 0.0 1.6 0.00 0.00 0.00 89 1016.5
20260903044052 26 0 0.0 0.0 0.00 0.00 0.00 87 1016.5
20260903043552 26 0 0.0 0.0 0.00 0.00 0.00 86 1016.4
20260903043103 26 0 0.0 0.0 0.00 0.00 0.00 86 1016.4
20260903042551 26 0 0.0 1.6 0.00 0.00 0.00 86 1016.4
20260903042054 26 0 0.0 1.6 0.00 0.00 0.00 86 1016.4
20260903041612 26 0 0.0 1.6 0.00 0.00 0.00 86 1016.4
20260903041051 26 0 0.0 0.0 0.00 0.00 0.00 85 1016.4
20260903040554 26 0 0.0 1.6 0.00 0.00 0.00 85 1016.4
20260903040111 26 0 0.0 1.6 0.00 0.00 0.00 85 1016.5